Terug naar catalogus

STARLINK-2319

ActiefCommunicatieVLEO
NORAD 47790·PAYLOAD·🇺🇸 United States

Gelanceerd Mar 11, 2021 vanaf Cape Canaveral Space Force Station

Loading…

Volgende Passages (komende 24 uur)

TLE

VersSource: CelesTrak SupGP

Epoch: Sep 15, 2026, 00:32 UTC

1 47790C 21018D   26258.02270833 -.00015441  00000+0 -49655-3 0  2583
2 47790  53.1589  55.5752 0001282  81.2387 271.7160 15.31708924    16

Volg STARLINK-2319 in realtime met AllMySat

Download on the App Store